BRX293 ESSB-ESNO

Flight info

Callsign BRX293
Flight time N/A
Altitude 27000
Route RESNA T317 OSK
Aircraft RJ85/M-SDFGIRWY/LB1

Departure

Time 2026-05-08 09:47
Airport Stockholm-Bromma Airport (ESSB)

Arrival

Time N/A
Airport Örnsköldsvik Airport (ESNO)
Time Latitude Longitude Altitude Speed Heading
2026-05-08 09:15 59.35605 17.94339 40 ft 0 kts 270°
2026-05-08 09:42 59.35606 17.94336 40 ft 1 kts 289°
2026-05-08 09:42 59.35614 17.94331 40 ft 2 kts
2026-05-08 09:43 59.35641 17.94350 40 ft 6 kts 354°
2026-05-08 09:43 59.35679 17.94289 40 ft 9 kts 308°
2026-05-08 09:43 59.35710 17.94175 40 ft 10 kts 271°
2026-05-08 09:43 59.35668 17.94070 40 ft 10 kts 269°
2026-05-08 09:44 59.35701 17.93957 40 ft 10 kts 304°
2026-05-08 09:44 59.35739 17.93851 40 ft 10 kts 305°
2026-05-08 09:44 59.35781 17.93735 40 ft 11 kts 305°
2026-05-08 09:44 59.35831 17.93596 40 ft 16 kts 305°
2026-05-08 09:45 59.35910 17.93381 40 ft 23 kts 306°
2026-05-08 09:45 59.35988 17.93155 40 ft 15 kts 296°
2026-05-08 09:45 59.35975 17.92966 40 ft 14 kts 255°
2026-05-08 09:45 59.35926 17.92839 37 ft 13 kts 183°
2026-05-08 09:46 59.35899 17.92867 37 ft 0 kts 124°
2026-05-08 09:47 59.35771 17.93227 34 ft 68 kts 126°
2026-05-08 09:47 59.35372 17.94350 38 ft 131 kts 124°
2026-05-08 09:47 59.34828 17.95878 601 ft 138 kts 123°
2026-05-08 09:47 59.34317 17.97401 1406 ft 137 kts 124°
2026-05-08 09:48 59.33725 17.99100 1881 ft 158 kts 125°
2026-05-08 09:48 59.33130 18.00778 2740 ft 152 kts 126°
2026-05-08 09:48 59.32460 18.02637 3002 ft 182 kts 124°
2026-05-08 09:48 59.31707 18.04760 3064 ft 192 kts 120°
2026-05-08 09:49 59.31445 18.07426 3281 ft 215 kts 77°
2026-05-08 09:49 59.32221 18.10015 3607 ft 232 kts 45°
2026-05-08 09:49 59.33436 18.12226 3992 ft 244 kts 44°
2026-05-08 09:49 59.34665 18.14543 4533 ft 247 kts 45°
2026-05-08 09:50 59.35885 18.16936 5137 ft 249 kts 47°
2026-05-08 09:50 59.37062 18.19376 5700 ft 250 kts 48°
2026-05-08 09:50 59.38220 18.21935 6332 ft 252 kts 50°
2026-05-08 09:50 59.39364 18.24543 6956 ft 254 kts 46°
2026-05-08 09:51 59.40927 18.26251 7476 ft 260 kts
2026-05-08 09:51 59.42717 18.25944 8093 ft 262 kts 345°
2026-05-08 09:51 59.44487 18.24995 8770 ft 264 kts 346°
2026-05-08 09:51 59.46250 18.24131 9457 ft 265 kts 346°
2026-05-08 09:52 59.48076 18.23341 10223 ft 267 kts 347°
2026-05-08 09:52 59.49889 18.22647 10799 ft 274 kts 349°
2026-05-08 09:52 59.51821 18.22007 11135 ft 290 kts 350°
2026-05-08 09:52 59.53906 18.21411 11466 ft 306 kts 351°
2026-05-08 09:53 59.56064 18.20868 11764 ft 319 kts 352°
2026-05-08 09:53 59.58294 18.20367 12208 ft 324 kts 352°
2026-05-08 09:53 59.60545 18.19872 12731 ft 328 kts 352°
2026-05-08 09:53 59.62824 18.19374 13217 ft 331 kts 352°
2026-05-08 09:54 59.65127 18.18871 13701 ft 334 kts 352°
2026-05-08 09:54 59.67443 18.18350 14165 ft 336 kts 352°
2026-05-08 09:54 59.69777 18.17834 14573 ft 338 kts 352°
2026-05-08 09:54 59.72122 18.17321 14972 ft 340 kts 352°
2026-05-08 09:55 59.74478 18.16792 15370 ft 342 kts 352°
2026-05-08 09:55 59.76851 18.16255 15787 ft 343 kts 351°
2026-05-08 09:55 59.79232 18.15716 16168 ft 345 kts 352°
2026-05-08 09:55 59.81620 18.15180 16551 ft 347 kts 351°
2026-05-08 09:56 59.84002 18.14631 16938 ft 349 kts 351°
2026-05-08 09:56 59.86448 18.14076 17320 ft 351 kts 352°
2026-05-08 09:56 59.88883 18.13531 17688 ft 352 kts 352°
2026-05-08 09:56 59.91294 18.12982 18067 ft 354 kts 352°
2026-05-08 09:57 59.96240 18.11846 18796 ft 358 kts 351°
2026-05-08 09:57 59.98691 18.11282 19104 ft 360 kts 351°
2026-05-08 09:57 60.01216 18.10706 19420 ft 362 kts 351°
2026-05-08 09:58 60.03722 18.10117 19724 ft 363 kts 351°
2026-05-08 09:58 60.06237 18.09490 20023 ft 365 kts 351°
2026-05-08 09:58 60.08761 18.08918 20342 ft 367 kts 351°
2026-05-08 09:58 60.11305 18.08338 20640 ft 369 kts 351°
2026-05-08 09:59 60.13863 18.07732 20962 ft 370 kts 351°